Hourly Data Report for October 29, 2016

All times are specified in Local Standard Time (LST). Add 1 hour to adjust for Daylight Saving Time where and when it is observed.

EUREKA CLIMATE
NUNAVUT

79°59'21.000" N
85°56'02.000" W
10.00 m
2401199
71613
NEK

Download Data

Hourly Data (October 2016)
Hourly Data Report for October 29, 2016
Temp Definition
°C
Dew Point Temp Definition
°C
Rel Hum Definition
%
Wind Dir Definition
10's deg

Wind Spd Definition
km/h
Visibility Definition
km
Stn Press Definition
kPa
Hmdx Definition


Wind Chill Definition


Weather Definition


TIME
00:00 -25.8 -28.3 80 8 3   102.92   -29 LegendNANA
01:00 -26.8 -29.3 79 10 11   102.93   -36 LegendNANA
02:00 -27.2 -29.8 78 7 5   102.92   -32 LegendNANA
03:00 -27.5 -30.1 79 10 3   102.93   -31 LegendNANA
04:00 -28.3 -31.1 77 2 4   102.93   -33 LegendNANA
05:00 -28.3 -31.0 78 11 8   102.91   -36 LegendNANA
06:00 -28.0 -30.6 78 11 8   102.90   -36 LegendNANA
07:00 -28.5 -31.1 78 3 3   102.88   -32 LegendNANA
08:00 -28.6 -31.2 78 10 6   102.85   -35 LegendNANA
09:00 -28.4 -31.0 78 10 6   102.82   -35 LegendNANA
10:00 -28.5 -31.0 78 11 4   102.76   -33 LegendNANA
11:00 -28.4 -31.0 78 3 6   102.76   -35 LegendNANA
12:00 -28.3 -30.9 78 9 2   102.75   -30 LegendNANA
13:00 -28.2 -30.8 78 6 4   102.72   -33 LegendNANA
14:00 -28.2 -30.8 78 13 5   102.71   -34 LegendNANA
15:00 -28.5 -31.2 78 11 8   102.68   -36 LegendNANA
16:00 -28.7 -31.4 78 11 8   102.70   -36 LegendNANA
17:00 -28.4 -31.0 78 11 2   102.66   -31 LegendNANA
18:00 -28.7 -31.4 77 5 4   102.61   -33 LegendNANA
19:00 -28.3 -30.9 78 15 1   102.55   -29 LegendNANA
20:00 -28.0 -30.6 78 11 9   102.53   -36 LegendNANA
21:00 -27.5 -30.0 79 3 9   102.47   -36 LegendNANA
22:00 -27.3 -29.8 79 11 5   102.40   -33 LegendNANA
23:00 -27.3 -29.8 79 11 8   102.35   -35 LegendNANA

Notes on Data Quality.

Legend

  • E = Estimated
  • M = Missing
  • NA = Not Available
  • ‡ = Partner data that is not subject to review by the National Climate Archives
Date modified: